Lawton, OK

2:03 PM CST on February 14, 2016 (GMT -0600)
Post Army Air Field

Weather History for KFSI - December, 2013

Change the Weather History Date:

Tuesday, December 3, 2013

  Actual Average Record
Temperature  
Mean Temperature 52 °F -  
Max Temperature 67 °F 55 °F 81 °F (2012)
Min Temperature 38 °F 29 °F 11 °F (1985)
Degree Days  
Heating Degree Days 12    
Growing Degree Days 2 (Base 50)    
Moisture  
Dew Point 38 °F    
Average Humidity 70    
Maximum Humidity 100    
Minimum Humidity 33    
Precipitation  
Precipitation 0.00 in - - ()
Sea Level Pressure  
Sea Level Pressure 29.53 in    
Wind  
Wind Speed 2 mph (ESE)    
Max Wind Speed 6 mph    
Max Gust Speed -    
Visibility 8 miles    
Events      
Averages and records for this station are not official NWS values.
T = Trace of Precipitation, MM = Missing Value Source: NWS Daily Summary

Daily Weather History Graph

Daily Weather History Graph

Search for Another Location

Airport or City:

Trip Planner

Search our weather history database for the weather conditions in past years. The results will help you decide how hot, cold, wet, or windy it might be!

Date:

Astronomy

Dec. 03, 2013 Rise Set
Actual Time 7:24 AM CST 5:22 PM CST
Civil Twilight 6:56 AM CST 5:50 PM CST
Nautical Twilight 6:25 AM CST 6:21 PM CST
Astronomical Twilight 5:54 AM CST 6:52 PM CST
Moon 7:56 AM CST (12/3) 6:26 PM CST (12/3)
Length of Visible Light 10h 53m
Length of Day
9h 58m
New Moon, 1% of the Moon is Illuminated
Dec 3
New Moon
Dec 9
First Quarter
Dec 17
Full
Dec 25
Last Quarter
Jan 1
New

Hourly Weather History & Observations

Time (CST) Temp. Windchill Dew Point Humidity Pressure Visibility Wind Dir Wind Speed Gust Speed Precip Events Conditions
12:58 AM 45.1 °F - 41.7 °F 88% 29.60 in 10.0 mi Calm Calm - N/A   Clear
1:58 AM 41.9 °F - 39.6 °F 91% 29.58 in 10.0 mi Calm Calm - N/A   Clear
2:58 AM 41.7 °F - 40.1 °F 94% 29.56 in 10.0 mi NNE 2.3 mph - N/A   Clear
3:58 AM 38.8 °F - 38.8 °F 100% 29.55 in 9.0 mi North 2.3 mph - N/A   Clear
4:58 AM 38.5 °F 35.0 °F 38.1 °F 99% 29.55 in 10.0 mi NNE 4.6 mph - N/A   Clear
5:58 AM 39.6 °F - 39.6 °F 100% 29.53 in 10.0 mi NNE 2.3 mph - N/A   Clear
6:58 AM 41.0 °F - 40.6 °F 99% 29.53 in 10.0 mi Calm Calm - N/A   Clear
7:58 AM 38.8 °F - 38.5 °F 99% 29.53 in 10.0 mi ESE 1.2 mph - N/A   Clear
8:58 AM 45.3 °F 42.3 °F 43.3 °F 93% 29.53 in 10.0 mi SSE 5.8 mph - N/A   Clear
9:58 AM 49.5 °F - 41.0 °F 73% 29.55 in 10.0 mi South 5.8 mph - N/A   Clear
10:58 AM 52.7 °F - 40.3 °F 63% 29.56 in 10.0 mi NNE 1.2 mph - N/A   Clear
11:58 AM 57.2 °F - 39.4 °F 51% 29.54 in 10.0 mi Variable 3.5 mph - N/A   Clear
12:58 PM 60.8 °F - 39.0 °F 45% 29.50 in 10.0 mi Variable 3.5 mph - N/A   Clear
1:58 PM 66.2 °F - 36.0 °F 33% 29.48 in 10.0 mi West 5.8 mph - N/A   Clear
2:58 PM 67.1 °F - 37.4 °F 34% 29.47 in 10.0 mi SSW 3.5 mph - N/A   Clear
7:58 PM 53.4 °F - 36.9 °F 53% 29.52 in 10.0 mi SSE 1.2 mph - N/A   Clear
8:59 PM 54.1 °F - 37.0 °F 52% 29.51 in 10.0 mi SSE 3.5 mph - N/A   Clear
9:58 PM 52.3 °F - 36.3 °F 54% 29.51 in 10.0 mi SSE 2.3 mph - N/A   Clear
10:04 PM 51.8 °F - 37.4 °F 58% 29.52 in 2.5 mi SSE 3.5 mph - N/A   Haze
10:38 PM 50.0 °F - 37.4 °F 62% 29.51 in 3.0 mi SE 1.2 mph - N/A   Haze
10:58 PM 49.3 °F - 36.5 °F 61% 29.51 in 5.0 mi Calm Calm - N/A   Haze
11:16 PM 50.0 °F - 37.4 °F 62% 29.52 in 2.5 mi Calm Calm - N/A   Haze
11:20 PM 48.2 °F - 37.4 °F 66% 29.51 in 3.0 mi Calm Calm - N/A   Haze
11:36 PM 48.2 °F - 35.6 °F 62% 29.51 in 2.5 mi ESE 3.5 mph - N/A   Haze
11:40 PM 48.2 °F - 35.6 °F 62% 29.51 in 3.0 mi ENE 2.3 mph - N/A   Haze
11:58 PM 43.3 °F - 36.0 °F 75% 29.51 in 10.0 mi Calm Calm - N/A   Clear